Home   Weather   Turin   Past weeks

Flag for Italy Past Weather in Turin, Italy — Yesterday and Last 2 Weeks

Now
43 °F

Clear.


Feels Like: 41 °F
Forecast: 40 / 47 °F
Wind: 3 mph from Northwest

Location: Torino / Bric Della Croce

Current Time: Feb 24, 2017 at 8:49:50 pm

Latest Report: Feb 24, 2017 at 7:55 pm


Visibility: 10 mi

Pressure: 29.74 "Hg

Humidity: 93%

Dew Point: 41 °F

Location of TurinLocation

Past Weather in Turin — Graph

°F

Turin Temperature Yesterday

Maximum temperature yesterday: 43 °F (at 12:55 am)
Minimum temperature yesterday: 41 °F (at 4:55 am)
Average temperature yesterday: 42 °F

High & Low Weather Summary for the Past Weeks

 TemperatureHumidityPressure
High50 °F (Feb 16, 2:55 pm)100% (Feb 9, 10:55 pm)30.54 "Hg (Feb 9, 10:55 pm)
Low28 °F (Feb 10, 3:55 am)36% (Feb 20, 9:55 pm)29.71 "Hg (Feb 24, 1:55 pm)
Average40 °F87%30.18 "Hg
* Reported Feb 9 6:55 pm — Feb 24 6:55 pm, Turin, Weather by CustomWeather, © 2017

Note: Actual official high and low records may vary slightly from our data, if they occured in-between our weather recording intervals... More about our weather records

Advertising

Turin Weather History for the Previous 24 Hours

Scroll right to see more
 ConditionsComfort  
Time TempWeatherWind HumidityBarometerVisibility
6:55 pm
Fri, Feb 24
43 °FClear.5 mph93%29.71 "Hg10 mi
5:55 pm45 °FFog.No wind87%29.71 "Hg3 mi
4:55 pm45 °FFog.No wind81%29.71 "Hg3 mi
3:55 pm45 °FFog.No wind87%29.71 "Hg3 mi
2:55 pm45 °FFog.3 mph87%29.71 "Hg0 mi
1:55 pm43 °FFog.No wind93%29.71 "Hg0 mi
12:55 pm41 °FFog.3 mph100%29.74 "Hg0 mi
11:55 am41 °FFog.No wind100%29.74 "Hg0 mi
10:55 am41 °FFog.No wind100%29.74 "Hg0 mi
9:55 am41 °FFog.No wind100%29.74 "Hg0 mi
8:55 am39 °FFog.No wind100%29.74 "Hg0 mi
7:55 am41 °FFog.No wind100%29.74 "Hg0 mi
6:55 am39 °FFog.No wind100%29.77 "Hg0 mi
5:55 am39 °FFog.No wind100%29.77 "Hg0 mi
4:55 am39 °FFog.5 mph100%29.77 "Hg0 mi
3:55 am39 °FFog.3 mph100%29.77 "Hg0 mi
2:55 am39 °FFog.2 mph100%29.80 "Hg0 mi
1:55 am41 °FFog.No wind100%29.80 "Hg0 mi
12:55 am41 °FFog.2 mph100%29.80 "Hg0 mi
11:55 pm
Thu, Feb 23
41 °FFog.2 mph100%29.83 "Hg0 mi
10:55 pm41 °FFog.No wind100%29.86 "Hg0 mi
9:55 pm41 °FFog.No wind100%29.86 "Hg0 mi
8:55 pm41 °FFog.3 mph100%29.86 "Hg0 mi
Weather by CustomWeather, © 2017

See weather overviewHow to use our weather pages